• In Uzbekistan
  • List of Countries
  • For 7 days
  • Water Temperature
  • Weather Map
  • Weather Widgets
  • user-avatar
    Login

    Hourly Weather Elbasan

    Today, 13 November, Wednesday

    Time Temperature Precipitation Wind Pressure Humidity
    00:00 +14°C° 3.9 mm 2 mps 727 mmHg 92%
    01:00 +14°C° 3.9 mm 2 mps 727 mmHg 92%
    02:00 +14°C° 0.5 mm 2 mps 727 mmHg 89%
    03:00 +14°C° 0.5 mm 2 mps 726 mmHg 86%
    04:00 +14°C° 0.5 mm 2 mps 726 mmHg 83%
    05:00 +13°C° 0 mm 3 mps 726 mmHg 82%
    06:00 +13°C° 0 mm 3 mps 726 mmHg 81%
    07:00 +13°C° 0 mm 3 mps 726 mmHg 80%
    08:00 +13°C° 0 mm 3 mps 727 mmHg 79%
    09:00 +14°C° 0 mm 3 mps 727 mmHg 77%
    10:00 +16°C° 0 mm 3 mps 728 mmHg 75%
    11:00 +17°C° 0.1 mm 3 mps 728 mmHg 72%
    12:00 +17°C° 0.1 mm 4 mps 728 mmHg 68%
    13:00 +18°C° 0.1 mm 4 mps 728 mmHg 64%
    14:00 +18°C° 0 mm 3 mps 728 mmHg 68%
    15:00 +17°C° 0 mm 3 mps 728 mmHg 72%
    16:00 +16°C° 0 mm 2 mps 728 mmHg 76%
    17:00 +15°C° 0 mm 2 mps 729 mmHg 78%
    18:00 +14°C° 0 mm 2 mps 729 mmHg 81%
    19:00 +14°C° 0 mm 2 mps 729 mmHg 83%
    20:00 +13°C° 0 mm 1 mps 730 mmHg 83%
    21:00 +13°C° 0 mm 1 mps 730 mmHg 83%
    22:00 +13°C° 0 mm 1 mps 730 mmHg 83%
    23:00 +13°C° 0 mm 1 mps 730 mmHg 83%

    Tomorrow, 14 November, Thursday

    Time Temperature Precipitation Wind Pressure Humidity
    00:00 +13°C° 0 mm 1 mps 730 mmHg 83%
    01:00 +13°C° 0 mm 1 mps 730 mmHg 82%
    02:00 +13°C° 0 mm 1 mps 730 mmHg 82%
    03:00 +13°C° 0 mm 1 mps 730 mmHg 83%
    04:00 +12°C° 0 mm 1 mps 730 mmHg 83%
    05:00 +12°C° 0 mm 1 mps 730 mmHg 82%
    06:00 +12°C° 0 mm 1 mps 730 mmHg 82%
    07:00 +13°C° 0 mm 1 mps 730 mmHg 82%
    08:00 +14°C° 0 mm 1 mps 731 mmHg 77%
    09:00 +16°C° 0 mm 1 mps 731 mmHg 72%
    10:00 +18°C° 0 mm 1 mps 731 mmHg 67%
    11:00 +18°C° 0.2 mm 1 mps 731 mmHg 67%
    12:00 +18°C° 0.2 mm 1 mps 731 mmHg 68%
    13:00 +17°C° 0.2 mm 2 mps 731 mmHg 68%
    14:00 +18°C° 0.1 mm 1 mps 731 mmHg 72%
    15:00 +16°C° 0.1 mm 1 mps 731 mmHg 76%
    16:00 +15°C° 0.1 mm 1 mps 731 mmHg 80%
    17:00 +15°C° 0 mm 1 mps 731 mmHg 81%
    18:00 +14°C° 0 mm 1 mps 731 mmHg 82%
    19:00 +13°C° 0 mm 1 mps 732 mmHg 82%
    20:00 +13°C° 0 mm 1 mps 732 mmHg 82%
    21:00 +13°C° 0 mm 1 mps 732 mmHg 82%
    22:00 +13°C° 0 mm 1 mps 732 mmHg 82%
    23:00 +12°C° 0 mm 1 mps 733 mmHg 81%

    Day after tomorrow, 15 November, Friday

    Time Temperature Precipitation Wind Pressure Humidity
    00:00 +12°C° 0 mm 1 mps 733 mmHg 80%
    01:00 +12°C° 0 mm 1 mps 733 mmHg 79%
    02:00 +12°C° 0 mm 1 mps 733 mmHg 78%
    03:00 +12°C° 0 mm 2 mps 733 mmHg 77%
    04:00 +12°C° 0 mm 2 mps 733 mmHg 75%
    05:00 +12°C° 0 mm 2 mps 733 mmHg 74%
    06:00 +12°C° 0 mm 2 mps 733 mmHg 73%
    07:00 +12°C° 0 mm 2 mps 734 mmHg 72%
    08:00 +14°C° 0 mm 2 mps 734 mmHg 67%
    09:00 +16°C° 0 mm 1 mps 734 mmHg 61%
    10:00 +19°C° 0 mm 1 mps 734 mmHg 55%
    11:00 +20°C° 0 mm 1 mps 734 mmHg 54%
    12:00 +20°C° 0 mm 1 mps 734 mmHg 53%
    13:00 +21°C° 0 mm 1 mps 734 mmHg 52%
    14:00 +20°C° 0 mm 1 mps 734 mmHg 58%
    15:00 +19°C° 0 mm 1 mps 734 mmHg 65%
    16:00 +18°C° 0 mm 1 mps 734 mmHg 72%
    17:00 +16°C° 0 mm 1 mps 735 mmHg 74%
    18:00 +15°C° 0 mm 1 mps 735 mmHg 77%
    19:00 +14°C° 0 mm 1 mps 735 mmHg 80%
    20:00 +14°C° 0 mm 1 mps 736 mmHg 81%
    21:00 +14°C° 0 mm 1 mps 736 mmHg 82%
    22:00 +13°C° 0 mm 1 mps 736 mmHg 83%
    23:00 +13°C° 0 mm 1 mps 736 mmHg 83%

    16 November, Saturday

    Time Temperature Precipitation Wind Pressure Humidity
    00:00 +13°C° 0 mm 1 mps 737 mmHg 84%
    01:00 +13°C° 0 mm 1 mps 737 mmHg 84%
    02:00 +13°C° 0 mm 1 mps 737 mmHg 83%
    03:00 +13°C° 0 mm 1 mps 736 mmHg 83%
    04:00 +13°C° 0 mm 2 mps 736 mmHg 82%
    05:00 +13°C° 0 mm 2 mps 737 mmHg 81%
    06:00 +13°C° 0 mm 2 mps 737 mmHg 80%
    07:00 +13°C° 0 mm 2 mps 737 mmHg 79%
    08:00 +14°C° 0 mm 2 mps 737 mmHg 73%
    09:00 +16°C° 0 mm 2 mps 737 mmHg 67%
    10:00 +18°C° 0 mm 1 mps 737 mmHg 61%
    11:00 +19°C° 0 mm 1 mps 737 mmHg 57%
    12:00 +20°C° 0 mm 1 mps 736 mmHg 53%
    13:00 +20°C° 0 mm 1 mps 736 mmHg 49%
    14:00 +19°C° 0 mm 1 mps 735 mmHg 54%
    15:00 +18°C° 0 mm 1 mps 735 mmHg 60%
    16:00 +16°C° 0 mm 1 mps 735 mmHg 66%
    17:00 +15°C° 0 mm 1 mps 735 mmHg 67%
    18:00 +15°C° 0 mm 1 mps 735 mmHg 69%
    19:00 +14°C° 0 mm 2 mps 735 mmHg 70%
    20:00 +14°C° 0 mm 2 mps 735 mmHg 72%
    21:00 +13°C° 0 mm 2 mps 735 mmHg 73%
    22:00 +13°C° 0 mm 2 mps 735 mmHg 75%
    23:00 +13°C° 0 mm 2 mps 734 mmHg 76%

    17 November, Sunday

    Time Temperature Precipitation Wind Pressure Humidity
    00:00 +12°C° 0 mm 2 mps 734 mmHg 78%
    01:00 +12°C° 0 mm 2 mps 734 mmHg 79%
    02:00 +11°C° 0 mm 3 mps 734 mmHg 80%
    03:00 +11°C° 0 mm 3 mps 733 mmHg 81%
    04:00 +10°C° 0 mm 3 mps 733 mmHg 82%
    05:00 +10°C° 0 mm 3 mps 733 mmHg 82%
    06:00 +10°C° 0 mm 3 mps 733 mmHg 82%
    07:00 +10°C° 0 mm 3 mps 733 mmHg 82%
    08:00 +12°C° 0 mm 3 mps 733 mmHg 75%
    09:00 +14°C° 0 mm 3 mps 733 mmHg 69%
    10:00 +17°C° 0 mm 3 mps 733 mmHg 62%
    11:00 +18°C° 0 mm 3 mps 733 mmHg 58%
    12:00 +19°C° 0 mm 3 mps 733 mmHg 53%
    13:00 +19°C° 0 mm 3 mps 733 mmHg 49%
    14:00 +18°C° 0 mm 2 mps 732 mmHg 54%
    15:00 +17°C° 0 mm 2 mps 732 mmHg 59%
    16:00 +16°C° 0 mm 2 mps 732 mmHg 64%
    17:00 +14°C° 0 mm 3 mps 732 mmHg 67%
    18:00 +13°C° 0 mm 3 mps 732 mmHg 70%
    19:00 +12°C° 0 mm 3 mps 732 mmHg 74%
    20:00 +12°C° 0 mm 3 mps 732 mmHg 74%
    21:00 +13°C° 0 mm 2 mps 733 mmHg 75%
    22:00 +13°C° 0 mm 2 mps 733 mmHg 76%
    23:00 +13°C° 2.9 mm 2 mps 733 mmHg 83%

    18 November, Monday

    Time Temperature Precipitation Wind Pressure Humidity
    00:00 +13°C° 2.9 mm 1 mps 733 mmHg 89%
    01:00 +12°C° 2.9 mm 1 mps 734 mmHg 96%
    02:00 +12°C° 1.2 mm 1 mps 734 mmHg 93%
    03:00 +12°C° 1.2 mm 1 mps 734 mmHg 91%
    04:00 +12°C° 1.2 mm 1 mps 734 mmHg 89%
    05:00 +12°C° 0 mm 1 mps 734 mmHg 88%
    06:00 +12°C° 0 mm 1 mps 734 mmHg 86%
    07:00 +11°C° 0 mm 1 mps 734 mmHg 85%
    08:00 +13°C° 0 mm 1 mps 735 mmHg 78%
    09:00 +15°C° 0 mm 1 mps 735 mmHg 71%
    10:00 +15°C° 0 mm 0 mps 735 mmHg 64%
    11:00 +18°C° 0 mm 1 mps 735 mmHg 62%
    12:00 +18°C° 0 mm 1 mps 735 mmHg 60%
    13:00 +19°C° 0 mm 1 mps 734 mmHg 58%
    14:00 +18°C° 0 mm 1 mps 734 mmHg 64%
    15:00 +16°C° 0 mm 1 mps 734 mmHg 71%
    16:00 +15°C° 0 mm 1 mps 734 mmHg 77%
    17:00 +14°C° 0 mm 1 mps 734 mmHg 79%
    18:00 +13°C° 0 mm 1 mps 734 mmHg 81%
    19:00 +13°C° 0 mm 1 mps 735 mmHg 83%
    20:00 +13°C° 0 mm 1 mps 735 mmHg 83%
    21:00 +12°C° 0 mm 1 mps 735 mmHg 82%
    22:00 +12°C° 0 mm 1 mps 735 mmHg 82%
    23:00 +12°C° 0 mm 1 mps 735 mmHg 82%
    Show more